Etusivu
METAR-TAF:

METAR-TAF

Lentoasemat :

McGregor Executive Airport

Waco, Texas, Yhdysvallat

Leveyspiiri: 31-29N, Pituuspiiri: 097-19W, korkeus merenpinnasta: 180 m

Tämänhetkinen sää

Tämä raportti tehtiin 49 minuuttia sitten, kello 01.56 UTC
Tuuli 5 kn etelästä
Lämpötila 12°C
Kosteus 47%
Ilmanpaine 1027 hPa
Näkyvyys: 16.1 km
selkeää

METAR: KPWG 290156Z AUTO 18005KT 10SM CLR 12/01 A3033 RMK AO2 SLP269 T01220011 $

Aika: 20:45 (02:45 UTC)


TAF: puuttuu

Säähavainnot ja -ennusteet yli 4000 lentoasemalta (METAR- ja TAF-raportit).

Käytössä olevat sääasemat on merkitty karttaan keltaisilla ja punaisilla pisteillä.

Aseta hiiri pisteen päälle nähdäksesi sääaseman nimen.

Klikkaa sitten nähdäksesi säähavainnot ja -ennusteet.

Kartan vaihtaminen: klikkaa mustalla rastilla varustettuja vihreitä pisteitä, niin voit zoomata sisään; viivalla varustettua vihreää pistettä, niin voit zoomata ulos tai vihreitä nuolia, niin pääset viereisille kartoille.


METAR-TAF: